GW0861 Weather Reports


Display with metric or nautical units.
time (UTC)temp
F
wind
direction
speed
MPH
gust
MPH
rain 1hr
in
rain 24hr
in
rain mn
in
humidity
%
barometer
mb
20260901110753 70 226 4.0 11.0 0.00 0.02 0.01 96 1016.1
20260901110253 70 252 6.0 11.0 0.00 0.02 0.01 96 1016.1
20260901105754 70 290 5.0 10.0 0.00 0.02 0.01 96 1016.1
20260901105253 70 255 5.0 12.0 0.01 0.02 0.01 96 1016.2
20260901104753 70 0 5.0 12.0 0.01 0.02 0.01 96 1016.2
20260901104254 70 248 4.0 12.0 0.01 0.02 0.01 96 1016.2
20260901103753 70 251 6.0 12.0 0.01 0.02 0.01 96 1016.2
20260901103253 70 295 4.0 12.0 0.01 0.02 0.01 96 1016.0
20260901102753 70 250 3.0 9.0 0.01 0.02 0.01 96 1015.9
20260901102253 70 265 4.0 9.0 0.01 0.02 0.01 96 1016.0
20260901101754 70 268 4.0 11.0 0.01 0.02 0.01 96 1015.9
20260901101254 70 233 4.0 11.0 0.01 0.02 0.01 96 1016.0
20260901100754 70 220 4.0 7.0 0.01 0.02 0.01 96 1016.1
20260901100253 70 188 4.0 11.0 0.01 0.02 0.01 96 1016.1
20260901095753 69 241 3.0 11.0 0.01 0.01 0.01 96 1016.1
20260901095253 69 217 2.0 7.0 0.00 0.01 0.00 96 1016.1
20260901094754 69 231 3.0 9.0 0.00 0.01 0.00 96 1016.2
20260901094253 69 230 4.0 9.0 0.00 0.01 0.00 96 1016.4
20260901093753 69 247 3.0 6.0 0.00 0.01 0.00 96 1016.4
20260901093255 69 230 3.0 10.0 0.00 0.01 0.00 96 1016.4
20260901092753 69 281 4.0 10.0 0.00 0.01 0.00 96 1016.4
20260901092253 69 245 4.0 6.0 0.00 0.01 0.00 96 1016.4
20260901091753 69 272 2.0 6.0 0.00 0.01 0.00 96 1016.6
20260901091253 69 231 2.0 7.0 0.00 0.01 0.00 96 1016.6
20260901090753 69 274 3.0 7.0 0.00 0.01 0.00 96 1016.6
20260901090253 69 165 3.0 6.0 0.00 0.01 0.00 96 1016.5
20260901085813 69 203 4.0 7.0 0.00 0.01 0.00 96 1016.4
20260901085804 69 244 3.0 6.0 0.00 0.01 0.00 96 1016.6
20260901084754 69 199 4.0 7.0 0.00 0.01 0.00 96 1016.5
20260901084253 69 176 3.0 5.0 0.00 0.01 0.00 96 1016.5
20260901083753 69 166 3.0 5.0 0.00 0.01 0.00 96 1016.4
20260901083253 69 158 2.0 3.0 0.00 0.01 0.00 96 1016.6
20260901082753 69 183 2.0 3.0 0.00 0.01 0.00 96 1016.7
20260901082254 69 183 1.0 4.0 0.00 0.01 0.00 96 1016.8
20260901081753 69 183 2.0 6.0 0.00 0.01 0.00 96 1016.8
20260901081254 69 149 3.0 6.0 0.00 0.01 0.00 96 1016.9
20260901080753 69 226 2.0 4.0 0.00 0.01 0.00 96 1016.8
20260901080253 69 247 3.0 4.0 0.00 0.01 0.00 96 1016.9
20260901080030 69 269 1.0 4.0 0.00 0.01 0.00 96 1016.9
20260901075253 69 269 2.0 4.0 0.00 0.01 0.00 96 1017.1
20260901074753 69 269 2.0 4.0 0.00 0.01 0.00 96 1017.2
20260901074311 69 262 0.0 3.0 0.00 0.01 0.00 96 1017.0
20260901074304 69 240 2.0 3.0 0.00 0.01 0.00 96 1017.0
20260901073254 69 262 0.0 4.0 0.00 0.01 0.00 96 1017.0
20260901072753 69 262 1.0 4.0 0.00 0.01 0.00 96 1017.1
20260901072253 69 269 2.0 5.0 0.00 0.01 0.00 96 1017.2
20260901071753 69 300 2.0 5.0 0.00 0.01 0.00 96 1017.4
20260901071252 69 261 3.0 5.0 0.00 0.01 0.00 96 1017.4
20260901071029 69 285 3.0 5.0 0.00 0.01 0.00 96 1017.3
20260901070253 69 248 0.0 5.0 0.00 0.01 0.00 95 1017.3
20260901070032 69 302 3.0 5.0 0.00 0.01 0.00 96 1017.5
20260901065253 69 254 3.0 5.0 0.00 0.01 0.00 95 1017.5
20260901064753 69 268 3.0 5.0 0.00 0.01 0.00 95 1017.7
20260901064253 69 279 3.0 4.0 0.00 0.01 0.00 95 1017.6
20260901063754 69 296 2.0 4.0 0.00 0.01 0.00 95 1017.7
20260901063253 69 283 1.0 4.0 0.00 0.01 0.00 95 1017.7
20260901062753 69 283 2.0 4.0 0.00 0.01 0.00 95 1017.7
20260901062530 69 275 2.0 5.0 0.00 0.01 0.00 95 1017.7
20260901061753 69 271 3.0 5.0 0.00 0.01 0.00 95 1017.8
20260901061530 69 282 3.0 5.0 0.00 0.01 0.00 95 1017.8
20260901060810 69 302 3.0 5.0 0.00 0.01 0.00 95 1017.9
20260901060803 69 278 3.0 5.0 0.00 0.01 0.00 95 1017.8
20260901055753 69 255 2.0 4.0 0.00 0.01 0.00 95 1017.8
20260901055253 69 281 2.0 4.0 0.00 0.01 0.00 95 1017.8
20260901054753 69 282 2.0 4.0 0.00 0.01 0.00 95 1017.9
20260901054535 69 271 2.0 5.0 0.00 0.01 0.00 95 1018.0
20260901053753 69 268 2.0 5.0 0.00 0.01 0.00 95 1018.0
20260901053253 69 259 2.0 4.0 0.00 0.01 0.00 95 1017.9
20260901052753 69 235 1.0 3.0 0.00 0.01 0.00 95 1018.0
20260901052254 69 204 0.0 3.0 0.00 0.01 0.00 95 1018.1
20260901051753 69 279 0.0 3.0 0.00 0.01 0.00 95 1018.0
20260901051253 69 279 1.0 3.0 0.00 0.01 0.00 95 1018.2
20260901050753 69 279 0.0 3.0 0.00 0.01 0.00 95 1018.2
20260901050253 69 279 1.0 3.0 0.00 0.01 0.00 95 1018.0
20260901045755 69 279 0.0 4.0 0.00 0.01 0.00 95 1018.1
20260901045255 69 279 2.0 4.0 0.00 0.01 0.00 95 1018.2
20260901044753 69 279 1.0 4.0 0.00 0.01 0.00 95 1018.2
20260901044252 69 279 2.0 4.0 0.00 0.01 0.00 95 1018.2
20260901043753 69 279 2.0 3.0 0.00 0.01 0.00 95 1018.2
20260901043253 69 279 0.0 0.0 0.00 0.01 0.00 95 1018.1
20260901042752 69 279 0.0 3.0 0.00 0.01 0.00 95 1018.1
20260901042550 69 279 0.0 2.0 0.00 0.01 0.00 94 1018.1
20260901042544 69 279 0.0 3.0 0.00 0.01 0.00 95 1018.1
20260901041530 69 279 0.0 3.0 0.00 0.01 0.00 95 1018.0
20260901041032 69 279 1.0 3.0 0.00 0.01 0.00 94 1018.2
20260901040532 69 279 1.0 3.0 0.00 0.01 0.00 94 1018.0
20260901035752 69 279 2.0 3.0 0.00 0.01 0.01 94 1018.0
20260901035252 69 279 0.0 2.0 0.00 0.01 0.01 94 1018.1
20260901034754 69 279 0.0 4.0 0.00 0.01 0.01 94 1018.1
20260901034252 69 279 1.0 4.0 0.00 0.01 0.01 94 1018.2
20260901033752 69 279 2.0 4.0 0.00 0.01 0.01 94 1018.4
20260901033252 69 279 1.0 4.0 0.00 0.01 0.01 94 1018.4
20260901032753 69 279 3.0 4.0 0.00 0.01 0.01 94 1018.6
20260901032529 69 279 1.0 4.0 0.00 0.01 0.01 94 1018.5
20260901031752 69 305 2.0 4.0 0.00 0.01 0.01 94 1018.5
20260901031252 69 306 2.0 4.0 0.00 0.01 0.01 94 1018.5
20260901031030 70 295 2.0 4.0 0.00 0.01 0.01 94 1018.6
20260901030253 70 292 2.0 5.0 0.00 0.01 0.01 94 1018.7
20260901025752 70 275 3.0 5.0 0.00 0.01 0.01 94 1018.6
20260901025252 70 261 2.0 5.0 0.00 0.01 0.01 94 1018.6
20260901024753 70 278 3.0 5.0 0.00 0.01 0.01 94 1018.6
20260901024255 70 278 3.0 4.0 0.00 0.01 0.01 94 1018.8
20260901023752 70 268 2.0 4.0 0.00 0.01 0.01 94 1018.9
20260901023252 70 261 2.0 7.0 0.00 0.01 0.01 93 1018.9
20260901022753 70 258 3.0 7.0 0.00 0.01 0.01 93 1018.9
20260901022253 70 238 3.0 5.0 0.00 0.01 0.01 93 1019.0
20260901021753 70 276 2.0 3.0 0.00 0.01 0.01 93 1018.9
20260901021253 70 276 0.0 0.0 0.00 0.01 0.01 93 1018.9
20260901020752 70 276 0.0 2.0 0.00 0.01 0.01 93 1018.9
20260901020254 70 276 0.0 2.0 0.00 0.01 0.01 93 1018.8
20260901020033 70 276 0.0 2.0 0.00 0.01 0.01 93 1018.8
20260901015251 70 276 0.0 2.0 0.00 0.01 0.01 93 1018.9
20260901015030 70 276 0.0 2.0 0.00 0.01 0.01 93 1019.0
20260901014252 70 276 1.0 3.0 0.00 0.01 0.01 92 1019.1
20260901013752 70 276 1.0 3.0 0.00 0.01 0.01 92 1019.1
20260901013532 70 276 1.0 3.0 0.00 0.01 0.01 92 1019.1
20260901012753 70 276 1.0 2.0 0.00 0.01 0.01 92 1019.0
20260901012530 70 276 1.0 2.0 0.00 0.01 0.01 92 1019.0
20260901011753 70 276 0.0 3.0 0.00 0.01 0.01 92 1019.2
20260901011253 71 276 1.0 4.0 0.00 0.01 0.01 92 1019.1
20260901010753 71 276 2.0 4.0 0.00 0.01 0.01 92 1019.1
20260901010529 71 279 2.0 4.0 0.00 0.01 0.01 92 1019.2
20260901005752 71 285 2.0 4.0 0.00 0.01 0.01 91 1019.1
20260901005530 71 261 2.0 5.0 0.00 0.01 0.01 91 1019.0
20260901004752 71 266 2.0 5.0 0.00 0.01 0.01 91 1019.0
20260901004251 71 285 3.0 5.0 0.00 0.01 0.01 91 1018.9
20260901003753 71 252 2.0 3.0 0.00 0.01 0.01 90 1018.9
20260901003252 71 252 1.0 3.0 0.00 0.01 0.01 90 1018.8
20260901002753 71 203 2.0 4.0 0.00 0.01 0.01 90 1018.8
20260901002253 71 251 2.0 4.0 0.00 0.01 0.01 90 1018.7
20260901001753 71 264 1.0 2.0 0.00 0.01 0.01 90 1018.8
20260901001252 71 264 1.0 5.0 0.00 0.01 0.01 90 1018.6
20260901000753 71 264 2.0 5.0 0.00 0.01 0.01 90 1018.6
20260901000255 71 259 2.0 4.0 0.00 0.01 0.01 89 1018.6
20260901000030 72 203 1.0 4.0 0.00 0.01 0.01 89 1018.6
20260831235252 72 245 1.0 4.0 0.00 0.01 0.01 89 1018.6
20260831234753 72 245 0.0 3.0 0.00 0.01 0.01 89 1018.5
20260831234252 72 206 1.0 3.0 0.00 0.01 0.01 89 1018.4
20260831233752 72 257 1.0 3.0 0.00 0.01 0.01 89 1018.4
20260831233252 72 214 1.0 3.0 0.00 0.01 0.01 88 1018.2
20260831232753 72 251 2.0 4.0 0.00 0.01 0.01 88 1018.2
20260831232252 72 237 1.0 4.0 0.00 0.01 0.01 88 1018.4
20260831231752 72 216 0.0 3.0 0.00 0.01 0.01 88 1018.4
20260831231252 72 216 1.0 4.0 0.00 0.01 0.01 88 1018.4
20260831230753 72 217 1.0 5.0 0.00 0.01 0.01 88 1018.4
20260831230252 73 202 2.0 5.0 0.00 0.01 0.01 88 1018.4
20260831225753 73 212 1.0 4.0 0.00 0.01 0.01 88 1018.4
20260831225253 73 189 1.0 7.0 0.00 0.01 0.01 88 1018.4
20260831224752 73 189 2.0 7.0 0.00 0.01 0.01 88 1018.5
20260831224252 73 221 2.0 4.0 0.00 0.01 0.01 88 1018.5
20260831223811 73 190 2.0 6.0 0.00 0.01 0.01 88 1018.5
20260831223805 73 245 2.0 4.0 0.00 0.01 0.01 88 1018.4
20260831222752 73 240 2.0 6.0 0.00 0.01 0.01 88 1018.5
20260831222252 73 257 2.0 5.0 0.00 0.01 0.01 88 1018.5
20260831221753 72 231 2.0 5.0 0.00 0.01 0.01 88 1018.5
20260831221253 72 221 3.0 5.0 0.00 0.01 0.01 88 1018.6
20260831221030 72 217 2.0 5.0 0.00 0.01 0.01 88 1018.6
20260831220253 72 219 3.0 5.0 0.00 0.01 0.01 88 1018.6
20260831215753 72 161 2.0 6.0 0.00 0.01 0.01 88 1018.6
20260831215253 72 206 3.0 6.0 0.00 0.01 0.01 88 1018.6
20260831214753 72 178 3.0 6.0 0.00 0.01 0.01 88 1018.7
20260831214528 72 192 4.0 6.0 0.00 0.01 0.01 88 1018.7
20260831214030 72 179 3.0 5.0 0.00 0.01 0.01 88 1018.6
20260831213254 72 209 4.0 6.0 0.00 0.01 0.01 88 1018.7
20260831212752 73 172 3.0 6.0 0.00 0.01 0.01 88 1018.7
20260831212252 73 214 3.0 9.0 0.00 0.01 0.01 87 1018.8
20260831211751 73 203 4.0 9.0 0.00 0.01 0.01 87 1018.8
20260831211253 73 172 4.0 6.0 0.00 0.01 0.01 87 1018.9
20260831210752 73 176 4.0 6.0 0.00 0.01 0.01 86 1018.9
20260831210252 74 178 4.0 7.0 0.01 0.01 0.01 87 1018.9
20260831210031 74 158 3.0 7.0 0.01 0.00 0.01 86 1018.9
20260831205253 74 183 3.0 6.0 0.01 0.00 0.01 86 1019.0
20260831204752 74 175 3.0 6.0 0.01 0.00 0.01 88 1019.0
20260831204530 73 192 3.0 6.0 0.01 0.00 0.01 88 1019.1
20260831204031 73 214 2.0 5.0 0.01 0.00 0.01 88 1019.0
20260831203531 73 235 2.0 5.0 0.01 0.00 0.01 89 1019.1
20260831202752 72 151 2.0 5.0 0.01 0.00 0.01 89 1019.2
20260831202253 72 166 2.0 3.0 0.01 0.00 0.01 90 1019.2
20260831201752 72 185 1.0 4.0 0.01 0.00 0.01 89 1019.3
20260831201252 72 185 2.0 5.0 0.01 0.00 0.01 88 1019.3
20260831201030 72 192 3.0 5.0 0.01 0.00 0.00 89 1019.3
20260831200252 72 182 1.0 5.0 0.00 0.00 0.00 90 1019.3
20260831200031 71 161 2.0 4.0 0.00 0.00 0.00 89 1019.3
20260831195253 71 171 3.0 5.0 0.00 0.00 0.00 90 1019.4
20260831194751 71 176 3.0 5.0 0.00 0.00 0.00 90 1019.3
20260831194252 71 158 3.0 5.0 0.00 0.00 0.00 92 1019.4
20260831193752 70 166 3.0 5.0 0.00 0.00 0.00 91 1019.4
20260831193252 70 165 3.0 5.0 0.00 0.00 0.00 91 1019.4
20260831192752 70 158 4.0 5.0 0.00 0.00 0.00 91 1019.5
20260831192252 69 185 4.0 6.0 0.00 0.00 0.00 91 1019.5
20260831191751 69 214 2.0 6.0 0.00 0.00 0.00 91 1019.6
20260831191254 69 190 3.0 9.0 0.00 0.00 0.00 91 1019.6
20260831190753 69 171 3.0 9.0 0.00 0.00 0.00 91 1019.7
20260831190252 69 192 5.0 10.0 0.00 0.00 0.00 91 1019.7
20260831185752 69 216 5.0 10.0 0.00 0.00 0.00 91 1019.7
20260831185251 69 178 3.0 10.0 0.00 0.00 0.00 91 1019.7
20260831184752 69 216 5.0 10.0 0.00 0.00 0.00 91 1019.7
20260831184252 69 247 4.0 12.0 0.00 0.00 0.00 92 1019.7
20260831183752 69 161 6.0 12.0 0.00 0.00 0.00 93 1019.6
20260831183253 69 171 7.0 12.0 0.00 0.00 0.00 94 1019.7
20260831182751 68 180 6.0 12.0 0.00 0.00 0.00 94 1019.7
20260831182252 68 169 7.0 12.0 0.00 0.00 0.00 94 1019.8
20260831181751 68 190 9.0 12.0 0.00 0.00 0.00 95 1019.8
20260831181252 67 190 6.0 11.0 0.00 0.00 0.00 95 1019.8
20260831181032 67 0 6.0 12.0 0.00 0.00 0.00 95 1019.9
20260831180252 67 188 6.0 12.0 0.00 0.00 0.00 95 1020.0
20260831180019 67 157 6.0 11.0 0.00 0.00 0.00 96 1020.1
20260831175252 67 175 5.0 11.0 0.00 0.00 0.00 96 1020.1
20260831174753 67 206 6.0 10.0 0.00 0.00 0.00 96 1020.1
20260831174323 66 179 5.0 9.0 0.00 0.00 0.00 96 1020.2
20260831174316 67 162 6.0 9.0 0.00 0.00 0.00 97 1020.1
20260831173258 66 178 5.0 10.0 0.00 0.00 0.00 96 1020.3
20260831172832 65 164 6.0 10.0 0.00 0.00 0.00 96 1020.5
20260831172823 65 169 6.0 10.0 0.00 0.00 0.00 96 1020.5
20260831171751 65 154 6.0 12.0 0.00 0.00 0.00 96 1020.5
20260831171255 65 175 6.0 12.0 0.00 0.00 0.00 96 1020.7
20260831170752 65 154 6.0 10.0 0.00 0.00 0.00 96 1020.7
20260831170521 65 151 5.0 11.0 0.00 0.00 0.00 96 1020.7
20260831165753 65 161 7.0 11.0 0.00 0.00 0.00 96 1020.7
20260831165251 65 169 6.0 9.0 0.00 0.00 0.00 96 1020.8
20260831164752 65 178 5.0 7.0 0.00 0.00 0.00 96 1020.8
20260831164253 65 165 5.0 6.0 0.00 0.00 0.00 96 1020.9
20260831163752 65 179 3.0 6.0 0.00 0.00 0.00 96 1021.1
20260831163252 65 212 1.0 9.0 0.00 0.00 0.00 96 1021.2
20260831162752 65 178 4.0 9.0 0.00 0.00 0.00 95 1021.1
20260831162251 65 178 5.0 7.0 0.00 0.00 0.00 95 1021.2
20260831161751 65 185 3.0 6.0 0.00 0.00 0.00 95 1021.3
20260831161250 65 241 4.0 6.0 0.00 0.00 0.00 95 1021.3
20260831160751 65 172 3.0 6.0 0.00 0.00 0.00 96 1021.5
20260831160251 65 307 3.0 6.0 0.00 0.00 0.00 96 1021.4
20260831155751 65 214 3.0 6.0 0.00 0.00 0.00 96 1021.3
20260831155251 65 180 3.0 6.0 0.00 0.00 0.00 96 1021.4
20260831154752 65 214 3.0 6.0 0.00 0.00 0.00 96 1021.3
20260831154251 65 166 4.0 6.0 0.00 0.00 0.00 96 1021.3
20260831153751 65 214 3.0 6.0 0.00 0.00 0.00 96 1021.3
20260831153251 65 200 3.0 9.0 0.00 0.00 0.00 96 1021.3
20260831152752 65 213 1.0 9.0 0.00 0.00 0.00 96 1021.2
20260831152252 65 186 4.0 6.0 0.00 0.00 0.00 96 1021.3
20260831152029 65 196 4.0 9.0 0.00 0.00 0.00 96 1021.2
20260831151251 65 179 5.0 9.0 0.00 0.00 0.00 96 1021.1
20260831150753 65 189 4.0 9.0 0.00 0.00 0.00 96 1021.0
20260831150250 65 168 5.0 9.0 0.00 0.00 0.00 96 1021.2
20260831145751 65 180 2.0 5.0 0.00 0.00 0.00 96 1021.2
20260831145251 65 179 4.0 5.0 0.00 0.00 0.00 96 1021.2
20260831145031 65 180 3.0 6.0 0.00 0.00 0.00 96 1021.1
20260831144251 65 185 3.0 7.0 0.00 0.00 0.00 96 1021.1
20260831143752 65 164 5.0 7.0 0.00 0.00 0.00 96 1021.1
20260831143252 65 169 5.0 7.0 0.00 0.00 0.00 96 1021.1
20260831142752 65 178 4.0 7.0 0.00 0.00 0.00 96 1021.1
20260831142527 65 164 5.0 7.0 0.00 0.00 0.00 96 1021.1
20260831142029 65 165 3.0 6.0 0.00 0.00 0.00 96 1021.1
20260831141252 65 171 3.0 6.0 0.00 0.00 0.00 96 1021.0
20260831140752 65 180 3.0 6.0 0.00 0.00 0.00 97 1020.9
20260831140251 65 152 5.0 7.0 0.00 0.00 0.00 96 1020.8
20260831140029 65 145 6.0 7.0 0.00 0.00 0.00 97 1020.8
20260831135251 64 138 5.0 6.0 0.00 0.00 0.00 97 1020.8
20260831134750 64 90 4.0 5.0 0.00 0.00 0.00 97 1020.8
20260831134253 65 159 4.0 6.0 0.00 0.00 0.00 97 1020.8
20260831133751 64 145 3.0 6.0 0.00 0.00 0.00 97 1020.9
20260831133251 64 175 4.0 5.0 0.00 0.00 0.00 97 1021.0
20260831132752 64 161 3.0 5.0 0.00 0.00 0.00 97 1020.9
20260831132252 64 121 3.0 3.0 0.00 0.00 0.00 97 1021.0
20260831131751 64 151 0.0 4.0 0.00 0.00 0.00 97 1021.0
20260831131252 64 213 0.0 5.0 0.00 0.00 0.00 97 1021.2
20260831131020 64 164 3.0 6.0 0.00 0.00 0.00 97 1021.2
20260831125752 64 131 3.0 5.0 0.00 0.00 0.00 96 1021.2
20260831125530 64 159 3.0 5.0 0.00 0.00 0.00 96 1021.3
20260831125031 64 154 2.0 4.0 0.00 0.00 0.00 96 1021.4
20260831124251 64 165 1.0 3.0 0.00 0.00 0.00 96 1021.4
20260831123751 64 172 2.0 3.0 0.00 0.00 0.00 96 1021.3
20260831123251 64 172 2.0 3.0 0.00 0.00 0.00 96 1021.4
20260831122751 63 165 2.0 4.0 0.00 0.00 0.00 96 1021.3
20260831122251 64 133 3.0 4.0 0.00 0.00 0.00 96 1021.3
20260831121751 64 128 3.0 4.0 0.00 0.00 0.00 96 1021.3
20260831121251 63 127 3.0 4.0 0.00 0.00 0.00 96 1021.3
20260831120751 63 54 3.0 4.0 0.00 0.00 0.00 96 1021.4
20260831120251 63 54 2.0 3.0 0.00 0.00 0.00 96 1021.5
20260831115751 63 114 1.0 3.0 0.00 0.00 0.00 96 1021.4
20260831115251 63 89 1.0 3.0 0.00 0.00 0.00 96 1021.4
20260831114751 63 87 2.0 3.0 0.00 0.00 0.00 96 1021.3
20260831114253 63 299 0.0 0.0 0.00 0.00 0.00 96 1021.3
20260831113753 63 299 0.0 0.0 0.00 0.00 0.00 96 1021.5
20260831113251 63 299 0.0 0.0 0.00 0.00 0.00 96 1021.4
20260831112751 63 299 0.0 0.0 0.00 0.00 0.00 96 1021.3
20260831112251 63 299 0.0 0.0 0.00 0.00 0.00 96 1021.3
20260831112030 63 299 0.0 0.0 0.00 0.00 0.00 96 1021.1
20260831111252 63 299 0.0 0.0 0.00 0.00 0.00 96 1021.3